Overview Statistics Trail Chart Weather Telemetry Raw packets
 

This is the latest recevied weather packets stored in our database for station/object G4WLC-1. If no packets are shown the sender has not sent any weather packets the latest 10 day(s).

<< 69 70 71 72 73 74 75 >>
Time Temp. Humidity Pressure Rain* Wind** Luminosity Snow
1788172633 19.44° C 79% 1012.4 hPa 0 mm - - -
1788172333 19.44° C 81% 1012.4 hPa 0 mm - - -
1788172033 18.89° C 78% 1012.3 hPa 0 mm - - -
1788171733 18.89° C 81% 1012.1 hPa 0 mm - - -
1788171433 18.89° C 81% 1012 hPa 0 mm - - -
1788171133 18.89° C 81% 1011.8 hPa 0 mm - - -
1788170833 18.33° C 82% 1011.8 hPa 0 mm - - -
1788170533 18.33° C 85% 1011.9 hPa 0 mm - - -
1788170233 17.78° C 85% 1011.9 hPa 0 mm - - -
1788169933 17.78° C 84% 1011.9 hPa 0 mm - - -
1788169633 17.78° C 87% 1011.8 hPa 0 mm - - -
1788169333 17.22° C 90% 1011.6 hPa 0 mm - - -
1788169033 16.67° C 92% 1011.7 hPa 0 mm - - -
1788168733 16.67° C 93% 1011.6 hPa 0 mm - - -
1788168433 16.67° C 94% 1011.5 hPa 0 mm - - -
1788168133 16.11° C 94% 1011.4 hPa 0 mm - - -
1788167833 16.11° C 94% 1011.2 hPa 0 mm - - -
1788167533 15.56° C 94% 1011.1 hPa 0 mm - - -
1788167233 15.56° C 94% 1011.1 hPa 0 mm - - -
1788166933 15° C 94% 1011 hPa 0 mm - - -
1788166633 15° C 94% 1010.9 hPa 0 mm - - -
1788166333 15° C 94% 1010.9 hPa 0 mm - - -
1788166033 15.56° C 95% 1011 hPa 0 mm - - -
1788165733 15° C 94% 1010.6 hPa 0 mm - - -
1788165433 14.44° C 94% 1010.5 hPa 0 mm - - -

* Rain latest hour (hover to see other rain measurements)
** Current wind speed in m/s (hover to see current wind gust speed)